{"data":{"norad_id":68720,"epoch":"2026-09-19T11:20:05.656416Z","epoch_age_seconds":132543,"freshness":"FRESH","line1":"1 68720U 26081X   26262.47228769  .00016319  00000+0  49296-3 0  9995","line2":"2 68720  53.1584 210.3118 0000687  86.5744 273.5337 15.34405791 24467","mean_motion":15.34405791,"eccentricity":6.87e-5,"inclination_deg":53.1584,"raan_deg":210.3118,"arg_perigee_deg":86.5744,"mean_anomaly_deg":273.5337,"bstar":0.00049296,"rev_number":2446,"period_min":93.847403890566,"perigee_km":462.2160636468,"apogee_km":463.15599273088,"semimajor_km":6840.8230281888,"source":"CELESTRAK","updated_at":"2026-09-20T09:00:43.986312Z"}}